Regional Weather Roundup
Issued by NWS

Home | Current Version | Previous Version | Text Only | Print | Product List | Glossary Off
Versions: 1 2 3 4 5 6 7 8 9 10 11 12 13 14 15 16 17 18 19 20 21 22 23 24 25 26 27 28 29 30 31 32 33 34 35 36 37 38 39 40 41 42 43 44 45 46 47 48 49 50

000
ASUS43 KOAX 031802
RWRNE

WEATHER ROUNDUP FOR NEBRASKA
NATIONAL WEATHER SERVICE OMAHA NE
1200 PM CST TUE MAR 03 2015

NOTES: SATELLITE DATA IS BEING USED TO AUGMENT CLOUD COVER ABOVE
       12000 FEET.
       "FAIR" INDICATES FEW OR NO CLOUDS BELOW 12,000 FEET WITH NO
       SIGNIFICANT WEATHER AND/OR OBSTRUCTIONS TO VISIBILITY.

  * THESE STATIONS DO NOT REPORT WEATHER SUCH AS RAIN...SNOW OR FOG.

NEZ001>004-019>022-054>056-031900-
NEBRASKA PANHANDLE

CITY           SKY/WX    TMP DP  RH WIND       PRES   REMARKS
SCOTTSBLUFF    LGT SNOW  20  11  68 N9        30.00R WCI   9
6HR MIN TEMP:  18; 6HR MAX TEMP:  25; 6HR PCP: TRACE;

ALLIANCE       CLOUDY    17   8  67 N16G23    29.98R WCI   2
6HR MIN TEMP:  15; 6HR MAX TEMP:  21; 6HR PCP: TRACE;

CHADRON        LGT SNOW  18   9  68 N8        30.03R WCI   8
6HR MIN TEMP:  14; 6HR MAX TEMP:  19; 6HR PCP: TRACE;

KIMBALL        FLURRIES  18  10  71 N13       29.92R WCI   4
SIDNEY         CLOUDY    21   9  59 N21G26    29.96R WCI   5
6HR MIN TEMP:  16; 6HR MAX TEMP:  28; 6HR PCP: TRACE;

$$

NEZ057>060-069>072-079>082-031900-
SOUTHWEST NEBRASKA

CITY           SKY/WX    TMP DP  RH WIND       PRES   REMARKS
NORTH PLATTE   CLOUDY    26   9  48 N22G29    29.98R WCI  12
6HR MIN TEMP:  22; 6HR MAX TEMP:  31;

IMPERIAL         N/A     25   9  50 N24G36    29.97R WCI   9
6HR MIN TEMP:  23; 6HR MAX TEMP:  32;

LEXINGTON      MOSUNNY   30  13  49 N29G36    29.94R WCI  15
MCCOOK         CLOUDY    32  12  43 N22G32    29.94R WCI  19
6HR MIN TEMP:  28; 6HR MAX TEMP:  35;

$$

NEZ005>010-023>029-035>040-094-031900-
NORTH CENTRAL NEBRASKA

CITY           SKY/WX    TMP DP  RH WIND       PRES   REMARKS
VALENTINE      MOSUNNY   18   8  65 N21G31    30.01R WCI   1
6HR MIN TEMP:  16; 6HR MAX TEMP:  23; 6HR PCP: TRACE;

AINSWORTH      LGT SNOW  19  12  72 NW25G31   29.98R WCI   2
BROKEN BOW     CLOUDY    27  11  51 N36G43    29.93R WCI  10
6HR MIN TEMP:  23; 6HR MAX TEMP:  32; 6HR PCP: TRACE;

ORD            CLOUDY    26  10  50 N28G38    29.95R WCI  10
6HR MIN TEMP:  23; 6HR MAX TEMP:  30;

$$

NEZ041-046>049-061>064-073>077-083>087-031900-
SOUTH CENTRAL NEBRASKA

CITY           SKY/WX    TMP DP  RH WIND       PRES   REMARKS
GRAND ISLAND   PTSUNNY   29  14  53 NW31G38   29.92R WCI  13
6HR MIN TEMP:  27; 6HR MAX TEMP:  33;

HASTINGS       CLOUDY    30  15  53 N26G36    29.89R WCI  16
6HR MIN TEMP:  28; 6HR MAX TEMP:  34;

HEBRON         CLOUDY    37  24  59 N23G30    29.88R WCI  26
KEARNEY *      PTSUNNY   30  12  47 N31G37    29.92R WCI  15
$$

NEZ011>018-030>034-042>045-031900-
NORTHEAST NEBRASKA

CITY           SKY/WX    TMP DP  RH WIND       PRES   REMARKS
NORFOLK        CLOUDY    27  15  61 N25G39    29.89R WCI  12
6HR MIN TEMP:  25; 6HR MAX TEMP:  32; 6HR PCP: TRACE;

BLAIR          CLOUDY    34  27  77 NW22G31   29.80R WCI  22
COLUMBUS *     PTSUNNY   28  10  47 N29G36    29.89R WCI  13
FREMONT        CLOUDY    31  22  70 NW29G39   29.86R WCI  16
TEKAMAH        CLOUDY    31  23  72 NW26G35   29.84R WCI  17
6HR MIN TEMP:  31; 6HR MAX TEMP:  36;

$$

NEZ050>053-065>068-078-088>093-031900-
SOUTHEAST NEBRASKA

CITY           SKY/WX    TMP DP  RH WIND       PRES   REMARKS
LINCOLN        CLOUDY    36  25  64 NW30G39   29.87R WCI  23
6HR MIN TEMP:  32; 6HR MAX TEMP:  38;

OMAHA EPPLEY   CLOUDY    36  28  73 NW20      29.81R WCI  25
6HR MIN TEMP:  31; 6HR MAX TEMP:  36; 6HR PCP: TRACE;

FALLS CITY     CLOUDY    42  29  59 NW20G29   29.82R
6HR MIN TEMP:  35; 6HR MAX TEMP:  42;

$$

NEZ044-045-051>053-067-031900-
OMAHA AREA

CITY           SKY/WX    TMP DP  RH WIND       PRES   REMARKS
OMAHA EPPLEY   CLOUDY    36  28  73 NW20      29.81R WCI  25
6HR MIN TEMP:  31; 6HR MAX TEMP:  36; 6HR PCP: TRACE;

BLAIR          CLOUDY    34  27  77 NW22G31   29.80R WCI  22
FREMONT        CLOUDY    31  22  70 NW29G39   29.86R WCI  16
OFFUTT AFB     CLOUDY    36  28  72 NW17G28   29.82R WCI  26
$$


USA.gov is the U.S. government's official web portal to all federal, state and local government web resources and services.